Regional Weather Roundup
Issued by NWS Goodland, KS

Home | Current Version | Previous Version | Text Only | Print | Product List | Glossary On
Versions: 1 2 3 4 5 6 7 8 9 10 11 12 13 14 15 16 17 18 19 20 21 22 23 24 25 26 27 28 29 30 31 32 33 34 35 36 37 38 39 40 41 42 43 44 45 46 47 48 49 50
000
ASUS43 KGLD 261708
RWRGLD

GOODLAND FORECAST AREA HOURLY WEATHER ROUNDUP
NATIONAL WEATHER SERVICE GOODLAND KS
1100 AM MDT THU APR 26 2018

...OFFICIAL OBSERVATIONS...

CITY           SKY/WX    TMP DP  RH WIND       PRES   REMARKS
GOODLAND KS    PTSUNNY   58  34  40 N33G49    30.11R
HILL CITY KS   SUNNY     60  41  49 N20       30.05R
IMPERIAL NEB   SUNNY     60  30  32 N35G47    30.16R
MCCOOK NEB       N/A     56  38  50 N28G40    30.08R
AKRON CO       MOSUNNY   55  31  39 N25G39    30.25R
BURLINGTON CO  MOSUNNY   57  31  37 N31G45    30.15R
LIMON CO       SUNNY     52  27  38 N29G46    30.25R
$$

...UNOFFICIAL OBSERVATIONS...

CITY           SKY/WX    TMP DP  RH WIND       PRES   REMARKS
COLBY KS       CLOUDY    54  37  54 N26G35    30.11R
NORTON KS      PTSUNNY   59  37  44 N22G28    30.05
SHARON SPRINGS   N/A     54  37  53 N20G33      N/A
KIT CARSON CO    N/A     56  30  37 MISG        N/A
YUMA CO        FAIR      54  23  30 N28G39    30.21R
$$




USA.gov is the U.S. government's official web portal to all federal, state and local government web resources and services.